CW9692 Weather Reports


Display with metric or nautical units.
time (UTC)temp
F
wind
direction
speed
MPH
gust
MPH
rain 1hr
in
rain 24hr
in
rain mn
in
humidity
%
barometer
mb
20260505011503 64 146 0.0 0.0 0.00 0.00 0.00 61 1011.3
20260505010004 64 146 0.0 0.0 0.00 0.00 0.00 62 1011.1
20260505004505 64 147 0.0 0.0 0.00 0.00 0.00 63 1011.1
20260505003004 65 147 0.0 0.0 0.00 0.00 0.00 63 1011.1
20260505001503 65 147 0.0 0.0 0.00 0.00 0.00 61 1011.1
20260505000005 67 147 0.0 0.0 0.00 0.00 0.00 59 1011.0
20260504234507 68 147 0.0 0.0 0.00 0.00 0.00 56 1011.0
20260504233006 69 147 0.0 7.0 0.00 0.00 0.00 54 1010.8
20260504231513 69 147 0.0 7.0 0.00 0.00 0.00 52 1010.9
20260504230008 69 141 2.0 7.0 0.00 0.00 0.00 51 1010.9
20260504224506 69 152 2.0 7.0 0.00 0.00 0.00 50 1010.8
20260504223004 69 172 3.0 14.0 0.00 0.00 0.00 48 1011.0
20260504221506 69 147 5.0 21.0 0.00 0.00 0.00 46 1010.9
20260504220016 70 165 6.0 15.0 0.00 0.00 0.00 43 1011.0
20260504214509 70 156 4.0 16.0 0.00 0.00 0.00 44 1011.0
20260504213008 70 129 4.0 18.0 0.00 0.00 0.00 43 1011.0
20260504211508 71 194 7.0 16.0 0.00 0.00 0.00 42 1010.9
20260504210008 72 144 4.0 14.0 0.00 0.00 0.00 41 1010.8
20260504204510 74 150 6.0 14.0 0.00 0.00 0.00 40 1010.8
20260504203020 76 150 4.0 14.0 0.00 0.00 0.00 37 1010.8
20260504201506 77 148 2.0 10.0 0.00 0.00 0.00 35 1011.0
20260504200010 78 149 1.0 10.0 0.00 0.00 0.00 31 1011.1
20260504194525 78 169 4.0 10.0 0.00 0.00 0.00 32 1011.2
20260504193016 77 255 0.0 6.0 0.00 0.00 0.00 33 1011.6
20260504191511 76 209 1.0 11.0 0.00 0.00 0.00 34 1011.9
20260504190010 75 179 0.0 11.0 0.00 0.00 0.00 34 1012.2
20260504184514 75 193 1.0 9.0 0.00 0.00 0.00 33 1012.4
20260504183012 75 202 0.0 10.0 0.00 0.00 0.00 34 1012.5
20260504181514 74 188 1.0 9.0 0.00 0.00 0.00 34 1012.8
20260504180019 75 161 0.0 11.0 0.00 0.00 0.00 34 1012.9
20260504174512 74 273 2.0 8.0 0.00 0.00 0.00 33 1013.1
20260504173020 74 220 1.0 9.0 0.00 0.00 0.00 35 1013.2
20260504171518 73 207 1.0 8.0 0.00 0.00 0.00 34 1013.4
20260504081521 52 188 0.0 9.0 0.00 0.00 0.00 62 1016.1
20260504050020 47 312 0.0 0.0 0.00 0.00 0.00 63 1016.5
20260504044522 47 312 0.0 0.0 0.00 0.00 0.00 63 1016.5
20260504043006 47 312 0.0 0.0 0.00 0.00 0.00 62 1016.4
20260504041511 47 312 0.0 0.0 0.00 0.00 0.00 62 1016.6
20260504040019 47 312 0.0 0.0 0.00 0.00 0.00 62 1016.5
20260504034535 46 312 0.0 0.0 0.00 0.00 0.00 63 1016.3
20260504033030 45 312 0.0 0.0 0.00 0.00 0.00 66 1016.1
20260504031509 44 312 0.0 0.0 0.00 0.00 0.00 67 1016.1
20260504030015 44 312 0.0 0.0 0.00 0.00 0.00 67 1015.9
20260504024523 45 312 0.0 0.0 0.00 0.00 0.00 65 1015.9
20260504023024 45 312 0.0 0.0 0.00 0.00 0.00 63 1016.0
20260504021524 46 312 0.0 0.0 0.00 0.00 0.00 63 1016.0
20260504020012 47 312 0.0 0.0 0.00 0.00 0.00 62 1015.9
20260504014519 48 312 0.0 0.0 0.00 0.00 0.00 60 1015.9
20260504013005 49 312 0.0 0.0 0.00 0.00 0.00 57 1015.9